This is the latest recevied weather packets stored in our database for station/object KK7ISX. If no packets are shown the sender has not sent any weather packets the latest 10 day(s).
| Time | Temp. | Humidity | Pressure | Rain* | Wind** | Luminosity | Snow |
|---|---|---|---|---|---|---|---|
| 1778011049 | 22.78° C | 38% | 1010.2 hPa | 0 mm | - | 742 W/m² | - |
| 1778010747 | 22.22° C | 38% | 1010.3 hPa | 0 mm | - | 750 W/m² | - |
| 1778010444 | 21.67° C | 37% | 1010.2 hPa | 0 mm | - | 753 W/m² | - |
| 1778010140 | 22.78° C | 36% | 1010.3 hPa | 0 mm | - | 755 W/m² | - |
| 1778009836 | 21.67° C | 37% | 1010.3 hPa | 0 mm | - | 758 W/m² | - |
| 1778009534 | 21.67° C | 36% | 1010.3 hPa | 0 mm | - | 761 W/m² | - |
| 1778009233 | 22.22° C | 37% | 1010.2 hPa | 0 mm | - | 761 W/m² | - |
| 1778008930 | 22.22° C | 36% | 1010.6 hPa | 0 mm | - | 764 W/m² | - |
| 1778008628 | 21.67° C | 38% | 1010.3 hPa | 0 mm | - | 765 W/m² | - |
| 1778008326 | 21.11° C | 38% | 1010.7 hPa | 0 mm | - | 766 W/m² | - |
| 1778008022 | 21.67° C | 39% | 1010.6 hPa | 0 mm | - | 765 W/m² | - |
| 1778007721 | 21.11° C | 38% | 1010.6 hPa | 0 mm | - | 765 W/m² | - |
| 1778007419 | 20.56° C | 39% | 1010.7 hPa | 0 mm | - | 765 W/m² | - |
| 1778007115 | 20.56° C | 38% | 1010.7 hPa | 0 mm | - | 764 W/m² | - |
| 1778006811 | 21.11° C | 39% | 1010.8 hPa | 0 mm | - | 762 W/m² | - |
| 1778006508 | 21.11° C | 38% | 1010.7 hPa | 0 mm | - | 762 W/m² | - |
| 1778006205 | 21.11° C | 37% | 1010.9 hPa | 0 mm | - | 759 W/m² | - |
| 1778005903 | 20.56° C | 38% | 1011 hPa | 0 mm | - | 758 W/m² | - |
| 1778005599 | 20.56° C | 39% | 1011 hPa | 0 mm | - | 754 W/m² | - |
| 1778005296 | 21.11° C | 39% | 1010.9 hPa | 0 mm | - | 752 W/m² | - |
| 1778004992 | 21.11° C | 38% | 1011 hPa | 0 mm | - | 747 W/m² | - |
| 1778004690 | 21.11° C | 38% | 1010.8 hPa | 0 mm | - | 744 W/m² | - |
| 1778004386 | 21.67° C | 37% | 1010.9 hPa | 0 mm | - | 740 W/m² | - |
| 1778004083 | 20.56° C | 40% | 1010.9 hPa | 0 mm | - | 734 W/m² | - |
| 1778003779 | 20.56° C | 38% | 1011.1 hPa | 0 mm | - | 726 W/m² | - |
* Rain latest hour (hover to see other rain measurements)
** Current wind speed in m/s (hover to see current wind gust speed)